Overview Statistics Trail Chart Weather Telemetry Raw packets
 

This is the latest recevied weather packets stored in our database for station/object K4XP. If no packets are shown the sender has not sent any weather packets the latest 10 day(s).

<< 36 37 38 39 40 41 42 >>
Time Temp. Humidity Pressure Rain* Wind** Luminosity Snow
1788399614 28.89° C 74% 1018.1 hPa 0 mm - - -
1788399318 28.89° C 73% 1018 hPa 0 mm - - -
1788399029 28.89° C 72% 1018 hPa 0 mm - - -
1788398711 28.89° C 72% 1017.9 hPa 0 mm - - -
1788397533 29.44° C 69% 1017.5 hPa 0 mm - - -
1788396927 30° C 68% 1017.5 hPa 0 mm - - -
1788396630 30° C 69% 1017.5 hPa 0 mm - - -
1788396312 30.56° C 68% 1017.3 hPa 0 mm - - -
1788395418 31.11° C 64% 1017.2 hPa 0 mm - - -
1788395120 31.11° C 63% 1017.1 hPa 0 mm - - -
1788394830 31.67° C 63% 1017.2 hPa 0 mm - - -
1788394513 31.67° C 62% 1017.1 hPa 0 mm - - -
1788394222 32.22° C 60% 1017.1 hPa 0 mm - - -
1788393924 32.22° C 59% 1017.1 hPa 0 mm - - -
1788393615 32.78° C 59% 1017.1 hPa 0 mm - - -
1788393318 32.78° C 59% 1017 hPa 0 mm - - -
1788393012 33.33° C 57% 1016.9 hPa 0 mm - - -
1788392715 33.89° C 56% 1016.9 hPa 0 mm - - -
1788392423 34.44° C 55% 1017 hPa 0 mm - - -
1788392128 35° C 52% 1016.9 hPa 0 mm - - -
1788391818 35.56° C 51% 1017 hPa 0 mm - - -
1788391522 35.56° C 51% 1017 hPa 0 mm - - -
1788391211 36.11° C 50% 1017 hPa 0 mm - - -
1788390914 36.11° C 50% 1016.9 hPa 0 mm - - -
1788390624 36.11° C 50% 1017 hPa 0 mm - - -

* Rain latest hour (hover to see other rain measurements)
** Current wind speed in m/s (hover to see current wind gust speed)